Location: Peach Mountain Observatory
(42.3967°N, 83.9367°W)
Time: 17:39:07
(UTC-05:00)

N. Korean satellite - Visible Passes

Search period start: 27 January 2021 00:00
Search period end: 06 February 2021 00:00
Orbit: 452 x 502 km, 97.2° (Epoch: 27 January)

Date Brightness Start Highest point End Pass type
(mag) Time Alt. Az. Time Alt. Az. Time Alt. Az.
27 Jan 9.5 05:11:15 10° NE 05:13:25 16° E 05:15:34 10° SE visible
27 Jan 7.3 06:43:48 10° N 06:46:47 28° WNW 06:49:44 10° SW visible
28 Jan 6.3 06:16:53 10° N 06:20:18 64° WNW 06:23:40 10° SSW visible
28 Jan 10.2 18:27:51 10° WSW 18:28:59 11° W 18:30:07 10° WNW visible
29 Jan 7.2 05:50:19 10° NNE 05:53:41 52° E 05:57:00 10° S visible
30 Jan 8.9 05:24:11 10° NE 05:26:58 23° E 05:29:44 10° SSE visible
30 Jan 7.8 06:57:39 10° NNW 07:00:10 19° WNW 07:02:39 10° WSW visible
31 Jan 9.9 04:59:18 10° ENE 05:00:09 11° E 05:01:01 10° ESE visible
31 Jan 6.8 06:30:28 10° N 06:33:42 40° WNW 06:36:54 10° SW visible
01 Feb 6.4 06:03:42 10° NNE 06:07:08 83° ESE 06:10:32 10° S visible
01 Feb 9.8 18:13:27 10° SW 18:15:43 16° W 18:17:59 10° NW visible
02 Feb 8.1 05:37:18 10° NNE 05:40:28 34° E 05:43:35 10° SSE visible
02 Feb 8.2 07:11:42 10° NW 07:13:28 14° WNW 07:15:13 10° W visible
03 Feb 9.5 05:11:30 10° NE 05:13:40 16° E 05:15:50 10° SE visible
03 Feb 7.3 06:44:05 10° NNW 06:47:02 27° WNW 06:49:58 10° SW visible
04 Feb 6.3 06:17:07 10° N 06:20:31 63° WNW 06:23:51 10° SSW visible
04 Feb 10.4 18:28:24 10° WSW 18:29:14 11° W 18:30:04 10° WNW visible
05 Feb 7.2 05:50:30 10° NNE 05:53:52 53° E 05:57:11 10° S visible
